Wind_Gust
14 14 13 12 12 13 13 13 12 12 12 13 13 14 14 14 14 15 15 15 16 16 17 18 18 19 20 21 22 22 23 27 28 24 23 25 9 15 11 9 17 12 11 18 20 22 23 22 22 19 22 20 22 24 18 21 16 19 24 23 23 24 19 16 18 21 21 17 16 15 15 15 21 22 18 19 17 17 20 22 21 23 24 27 28 26 26 25
14 13 13 13 13 13 14 13 12 12 13 13 14 14 14 15 14 15 15 15 16 17 17 18 18 19 20 21 22 21 26 27 27 26 32 16 15 13 10 10 17 17 14 22 22 23 22 23 22 21 23 23 16 23 19 25 20 24 22 24 24 20 16 11 16 19 13 17 14 14 14 14 20 21 24 26 21 20 22 23 21 25 23 24 26 25 22 22
13 13 12 12 12 12 12 12 13 13 13 13 13 13 14 14 14 14 15 15 16 16 17 18 19 19 21 21 21 20 26 28 26 28 14 14 12 14 12 14 19 17 23 21 21 21 22 20 21 23 22 23 21 21 21 21 22 23 23 23 25 14 15 11 13 13 15 14 13 15 15 13 16 16 25 22 22 19 23 26 22 23 25 25 24 23 23 22
12 12 13 12 12 13 14 14 14 14 15 14 13 13 13 14 14 14 14 15 15 16 17 18 19 20 21 22 19 28 24 25 29 17 22 11 9 14 14 15 20 21 25 24 18 23 19 17 20 24 22 25 22 20 24 23 25 22 27 24 19 17 15 17 14 10 11 13 15 15 14 14 18 10 19 19 20 23 21 21 21 19 25 27 25 24 22 21
12 12 12 13 13 14 15 14 15 15 14 15 13 13 13 14 15 15 15 15 16 15 17 19 19 20 21 21 20 24 22 22 18 23 18 8 9 13 16 14 18 26 24 22 21 21 20 20 21 22 25 25 20 20 23 20 25 17 24 24 18 14 18 16 14 12 11 11 15 14 14 14 15 15 19 19 22 24 16 17 17 23 25 27 26 24 21 21
12 12 12 12 13 14 15 15 15 15 16 14 13 13 13 14 14 14 15 15 16 16 17 19 19 19 21 20 30 21 19 20 19 19 9 10 10 12 18 17 19 25 23 24 23 21 22 22 23 25 27 24 21 24 21 23 21 26 20 21 18 14 17 17 12 13 12 14 15 16 14 16 17 19 17 19 15 18 17 16 21 25 22 24 25 23 21 20
12 12 12 13 13 14 15 16 15 15 14 13 13 14 13 13 13 14 15 14 15 16 17 18 18 20 20 23 29 22 24 37 11 20 13 10 11 14 20 20 19 25 24 26 24 28 25 24 25 24 23 24 21 26 20 22 21 25 23 20 21 16 19 12 14 14 14 13 15 16 15 15 15 20 16 18 17 16 17 17 23 25 23 24 25 23 21 19
12 12 12 13 14 15 15 15 15 14 13 13 15 14 13 13 14 14 14 14 14 15 17 18 18 19 18 24 19 23 26 26 20 21 11 10 16 19 21 23 26 25 26 28 26 27 25 28 28 25 28 25 19 26 19 20 22 25 30 15 13 17 19 14 13 16 11 13 14 12 16 11 16 14 23 17 17 17 18 24 25 27 26 23 23 22 20 19
12 12 12 13 13 13 13 15 15 14 15 15 16 15 14 13 14 13 13 14 15 15 16 17 17 18 16 22 20 21 25 23 15 14 14 12 14 18 23 23 25 26 28 27 26 25 25 28 28 27 25 25 20 21 20 21 25 25 22 18 15 16 15 17 15 14 14 16 10 14 12 12 10 12 18 20 19 17 20 22 29 27 28 23 22 21 19 18
12 12 13 13 13 14 14 14 14 14 15 16 16 14 14 13 13 13 14 15 15 15 15 16 18 17 22 21 21 22 16 12 11 12 11 8 12 17 22 18 27 27 27 28 26 28 29 27 26 23 26 24 20 22 18 23 18 17 23 22 19 16 17 16 18 19 17 16 14 16 14 17 15 22 23 19 21 18 19 21 23 23 23 22 22 20 18 18
13 13 13 13 14 15 15 14 14 15 15 15 14 13 13 12 14 14 14 14 14 15 14 15 16 19 22 18 23 26 15 11 13 13 11 10 11 16 20 18 23 28 26 25 28 28 25 26 21 23 26 29 19 21 23 24 23 11 15 19 21 17 17 16 20 19 19 20 18 16 16 15 19 20 20 22 21 22 21 21 22 21 22 23 21 20 19 17
13 13 13 14 14 14 14 14 15 15 15 16 14 13 12 12 14 14 15 15 15 14 14 13 14 24 22 22 25 26 13 14 12 12 13 11 12 11 10 13 20 23 24 25 27 25 25 25 19 25 24 20 31 19 27 19 22 17 14 21 21 21 25 21 23 21 19 24 21 19 17 18 21 24 18 25 23 21 22 22 22 23 23 23 21 21 19 18
13 13 13 14 14 15 14 15 15 16 15 15 13 14 14 12 14 15 14 15 13 13 12 13 16 22 21 23 31 35 20 14 11 9 10 10 11 14 14 15 18 21 22 23 23 25 23 25 20 24 26 18 20 27 13 25 21 19 18 22 22 26 27 26 24 23 25 19 23 21 27 26 27 21 20 21 23 21 22 22 22 24 22 22 21 20 20 18
13 13 14 14 14 14 15 15 14 14 13 12 14 14 13 14 16 15 15 14 14 14 15 14 22 21 20 27 23 13 16 21 18 20 21 17 15 13 11 15 18 19 18 21 20 23 24 19 18 23 23 22 25 20 17 23 22 27 20 23 26 28 30 28 32 26 29 20 20 23 26 29 28 24 23 21 21 23 22 22 23 24 22 21 21 21 20 18
14 15 14 14 14 14 14 14 15 14 13 13 15 14 12 15 17 16 15 14 13 13 12 12 21 20 21 30 28 32 11 15 22 23 21 22 19 16 16 17 16 18 18 18 21 17 16 16 18 25 31 23 28 22 27 24 25 25 28 30 26 26 26 32 30 29 33 28 24 24 30 27 33 29 25 23 23 22 22 23 24 26 23 20 21 21 21 18
15 15 15 14 14 14 14 14 14 14 13 14 14 15 16 18 18 17 16 15 14 12 19 19 20 23 23 31 21 15 19 26 29 26 22 20 21 20 16 19 16 19 19 17 15 18 16 18 25 25 24 23 26 24 24 27 27 29 28 21 29 26 27 34 34 28 31 32 23 30 33 29 31 29 25 23 24 23 24 25 23 23 25 21 21 21 21 20
15 15 15 15 14 14 14 14 14 13 13 12 13 16 17 18 19 19 15 13 17 19 19 19 16 17 20 17 14 19 24 26 18 22 24 24 20 20 20 20 22 20 20 16 16 17 20 24 22 27 26 27 27 27 28 28 26 30 29 26 24 30 28 31 32 29 33 26 30 34 41 20 26 29 24 23 22 22 23 25 29 26 22 24 23 21 21 21
14 14 15 15 15 13 13 13 13 13 13 12 12 18 26 19 16 9 14 16 21 17 19 22 20 18 37 39 23 25 26 21 24 19 20 25 22 20 20 25 20 21 20 22 19 25 25 28 27 28 27 29 30 32 33 30 28 27 28 26 27 29 24 26 39 35 36 27 27 31 35 24 26 24 23 21 21 21 21 24 31 28 24 24 24 20 20 21
15 14 14 14 13 13 12 12 12 12 11 10 18 22 21 21 22 20 19 24 24 18 17 27 29 28 16 22 31 14 15 17 16 17 23 24 26 22 21 20 21 25 26 26 26 26 29 27 27 30 33 32 32 32 31 23 24 24 26 27 23 29 31 29 32 33 33 31 28 32 36 26 22 21 22 22 21 21 22 24 30 23 20 22 22 20 19 20
15 14 14 13 13 12 11 11 10 11 9 14 23 23 24 21 22 22 25 25 30 27 18 18 37 30 13 14 27 16 14 16 20 22 21 24 29 25 25 25 25 26 27 29 28 32 26 32 34 34 30 30 27 30 29 27 21 23 25 27 25 26 27 23 28 32 34 31 28 31 36 25 24 23 22 21 19 19 22 24 25 22 22 18 21 19 19 19
14 14 13 12 13 12 12 11 11 10 7 19 17 20 22 23 24 24 29 28 31 31 32 17 30 30 27 18 12 14 26 22 21 23 23 26 26 27 32 29 30 30 30 26 27 26 27 33 33 29 28 27 28 27 27 29 18 21 24 27 26 27 29 26 22 31 36 29 29 27 34 25 26 22 22 20 20 22 21 24 24 28 23 19 21 22 18 19
12 13 12 12 12 12 11 12 11 7 10 19 21 26 24 16 19 17 19 28 31 36 33 33 23 27 31 24 12 10 14 26 25 23 25 29 31 35 30 31 31 31 26 30 26 30 32 35 29 27 29 25 26 27 27 26 21 22 26 27 26 29 26 25 21 23 32 30 29 29 31 29 21 22 21 23 22 22 22 21 24 26 22 21 21 21 19 19
12 12 13 11 12 11 11 10 8 6 19 20 22 22 25 18 16 20 17 28 30 26 36 34 33 32 32 24 23 13 19 24 32 28 34 29 31 35 31 35 31 29 32 31 32 29 32 32 29 27 27 26 28 28 29 25 22 23 25 28 29 25 32 34 25 26 28 37 27 31 33 29 20 17 20 22 21 18 17 16 17 24 28 22 21 23 21 20
11 12 12 12 11 11 11 9 8 16 23 22 22 23 15 11 16 17 21 24 22 23 34 34 34 34 34 33 26 25 23 24 23 30 27 37 34 30 32 33 30 33 34 33 29 30 28 21 29 27 29 29 29 29 30 28 28 25 24 25 29 26 32 26 28 26 23 32 25 28 34 33 24 25 23 18 17 18 18 18 17 18 25 20 21 22 23 20
12 12 12 12 11 11 10 11 20 24 21 22 24 19 20 16 15 11 19 26 35 38 25 31 30 32 33 27 23 32 26 25 23 22 34 32 33 36 30 35 35 35 29 31 30 30 28 23 27 30 31 31 30 32 33 29 28 29 26 25 23 24 25 26 28 28 29 32 35 29 41 39 28 26 27 24 25 24 21 23 21 20 20 22 20 19 20 20
11 12 12 11 11 9 9 16 24 24 18 20 19 17 16 15 15 13 18 23 26 31 35 36 33 38 37 35 26 28 22 37 26 24 30 32 28 34 32 35 37 32 31 31 34 33 26 23 25 31 31 32 32 30 29 29 29 26 32 28 25 25 26 24 30 28 31 38 35 28 33 31 28 32 31 28 25 22 21 19 20 22 24 22 22 21 21 21
11 11 11 10 8 8 18 12 23 13 18 20 14 14 11 12 10 12 20 22 26 38 41 26 36 34 43 31 33 28 34 36 29 26 27 31 34 32 30 30 33 26 31 29 34 39 29 26 26 29 32 34 32 34 33 33 31 30 23 29 25 22 29 27 28 28 26 23 29 33 37 29 29 31 27 25 25 23 22 19 18 20 22 21 18 20 19 20
11 12 11 10 8 10 22 25 17 17 16 19 15 14 12 11 12 13 19 17 27 35 34 37 25 32 30 34 34 39 24 28 40 37 26 28 30 33 36 29 31 29 29 31 33 20 27 29 28 30 30 35 36 29 26 31 37 25 24 30 25 21 24 29 28 28 28 28 32 38 34 39 29 28 27 29 27 26 24 21 21 22 25 24 22 22 21 20
12 12 11 10 10 12 20 20 16 21 17 13 13 12 13 12 16 20 21 19 30 37 32 29 25 24 20 33 38 33 36 33 32 32 29 27 35 28 38 30 31 27 29 31 29 25 34 32 29 29 33 35 27 29 27 31 35 28 22 26 27 23 22 24 27 27 30 30 28 32 34 41 29 31 32 29 29 28 26 23 23 23 22 21 18 20 20 19
11 10 11 9 12 19 21 22 23 21 18 14 14 13 14 13 18 17 19 19 29 27 27 28 32 31 28 37 37 35 39 27 27 40 37 38 34 30 30 23 30 31 35 33 32 27 24 25 29 35 37 28 27 28 29 30 32 28 21 26 31 29 26 24 28 29 31 37 33 27 32 35 31 31 32 35 37 29 26 23 23 24 21 19 17 17 18 19
11 10 10 8 20 17 16 21 24 26 20 14 13 15 16 19 24 25 19 23 25 28 24 29 33 30 34 35 38 36 35 28 30 39 39 34 35 33 28 34 31 33 34 31 34 34 28 28 33 35 26 29 26 31 29 29 34 30 32 31 29 29 25 25 25 23 33 36 30 30 32 35 35 30 32 27 26 29 27 25 25 26 23 19 17 17 17 19
11 11 11 19 20 19 22 12 17 15 16 11 12 18 24 22 23 24 27 18 25 29 26 31 29 37 32 31 29 43 45 34 29 42 38 39 34 41 38 34 41 41 38 36 36 32 33 33 26 26 27 31 34 32 32 32 34 37 29 32 32 33 33 34 33 34 31 31 30 33 31 35 39 22 28 29 23 27 24 25 26 26 25 21 20 19 19 19
6 6 11 19 17 20 23 16 12 12 12 12 17 20 24 21 25 32 29 25 16 14 27 25 30 31 30 32 35 37 34 32 32 32 32 37 34 34 30 35 33 39 37 34 31 34 33 26 30 28 28 34 34 39 40 36 38 35 36 36 36 36 35 28 32 26 29 29 23 35 30 32 24 26 27 28 24 22 22 21 22 23 24 23 22 21 22 20
7 10 20 19 22 22 18 15 16 15 13 12 19 25 21 19 27 20 20 24 17 15 15 25 30 27 31 40 30 36 41 30 34 40 34 36 37 36 38 35 34 35 33 33 41 36 32 38 40 34 35 31 43 38 30 27 35 36 29 35 32 32 39 30 36 37 35 29 25 26 39 32 27 25 22 26 26 25 21 22 23 24 25 23 22 22 21 20
9 14 18 18 21 23 21 20 16 15 15 18 23 27 24 28 26 29 25 24 24 18 18 16 26 29 32 31 28 36 33 40 34 32 37 37 38 39 39 39 37 34 30 33 35 32 31 31 29 32 20 32 33 30 31 29 30 32 33 29 34 37 26 32 23 27 33 31 29 30 25 17 25 24 22 24 24 26 25 24 23 24 23 22 21 20 20 20
10 19 19 22 22 21 23 23 18 17 19 21 28 29 32 29 19 20 19 19 19 18 15 18 23 30 32 33 30 34 34 32 35 35 37 35 34 38 33 35 46 38 36 37 30 33 33 36 29 35 28 32 33 29 34 31 38 36 36 40 33 26 29 24 15 16 10 24 30 25 23 24 25 20 21 24 25 25 25 24 22 21 21 20 21 20 19 19
18 15 21 21 23 22 24 23 23 21 20 25 28 30 30 29 15 13 12 17 14 14 18 26 35 32 34 36 33 34 40 33 37 39 37 35 41 36 39 34 32 38 33 29 28 28 29 27 30 35 34 29 31 31 29 31 28 32 40 33 26 31 29 29 30 23 25 32 28 31 31 28 31 28 25 24 26 26 26 24 22 21 21 21 20 19 20 19
15 17 18 18 20 24 22 24 23 23 24 27 28 16 18 25 16 12 13 12 21 16 14 22 23 26 33 35 35 36 35 35 36 39 31 36 40 33 34 41 37 37 34 31 26 30 27 29 34 33 31 30 30 32 33 31 32 33 32 24 40 36 37 29 31 31 34 33 29 30 30 30 34 28 33 29 28 26 25 23 22 22 22 22 20 20 18 18
13 15 20 19 16 19 20 24 25 25 27 31 28 27 24 24 19 18 15 14 12 14 18 15 15 24 25 33 29 33 38 41 34 36 36 40 37 37 39 31 36 34 34 33 33 26 27 26 31 29 34 30 30 36 39 38 35 31 25 36 32 29 31 29 34 24 33 27 23 29 34 32 38 31 33 33 31 30 27 23 22 22 22 21 20 19 18 18
16 17 14 11 14 20 23 25 25 26 29 31 28 30 18 22 23 18 14 14 19 18 10 14 18 16 16 21 28 36 37 34 35 36 30 32 32 31 37 31 31 36 34 34 28 22 26 22 23 32 31 31 38 42 38 38 38 38 38 39 38 34 23 29 28 32 33 34 28 27 32 29 21 33 33 33 34 31 28 27 24 24 22 20 19 19 18 18
16 17 16 12 17 21 25 25 27 30 31 29 25 23 19 20 19 17 12 12 18 11 14 14 16 17 14 17 28 30 36 37 36 36 33 29 35 35 33 32 28 33 36 34 30 26 25 30 22 30 40 40 33 33 30 33 33 33 35 33 34 34 36 35 33 32 33 39 32 30 29 23 14 19 30 32 31 31 26 25 26 24 23 22 20 18 17 17
17 17 15 15 18 24 28 26 30 24 29 28 28 28 21 9 20 16 18 19 19 17 15 14 17 20 20 18 16 27 33 37 35 31 30 26 31 21 24 27 28 27 39 39 35 26 24 25 26 30 35 37 30 31 31 31 32 32 34 33 32 33 33 36 33 31 32 33 27 26 23 18 13 17 27 29 29 28 27 26 26 24 22 21 21 18 17 16
18 12 11 15 19 27 28 23 21 25 27 24 19 22 20 20 18 19 19 17 20 19 16 15 16 16 15 18 15 20 27 36 33 33 28 26 29 26 25 26 24 27 34 38 30 29 9 27 31 29 28 29 30 29 32 32 32 35 35 34 34 38 34 33 31 25 31 24 29 25 24 20 16 19 26 29 29 27 26 25 27 25 22 22 20 19 17 17
10 14 14 16 21 25 22 25 25 23 25 22 21 20 16 21 21 20 21 15 21 14 12 13 13 18 18 16 17 19 20 25 29 30 34 27 26 26 26 25 26 33 33 29 33 30 34 30 29 31 34 35 32 31 38 30 33 37 37 36 32 33 34 30 27 20 29 28 24 23 24 17 21 23 30 31 30 27 26 25 27 26 21 21 20 18 19 17
10 13 16 23 21 22 26 22 18 21 22 21 21 21 21 21 19 18 17 18 18 16 12 18 22 16 20 15 19 20 24 23 30 33 25 27 21 21 22 24 26 26 26 24 18 27 26 23 30 33 35 36 39 41 43 38 38 35 32 36 35 35 35 36 34 25 26 24 28 28 20 23 26 28 31 30 29 27 26 25 24 24 22 21 20 20 19 19
14 18 20 23 25 24 28 25 18 22 23 20 14 21 22 23 22 19 17 22 18 16 21 22 21 21 23 20 22 22 24 24 26 30 30 28 26 33 27 24 22 29 19 13 20 23 29 22 27 24 28 31 31 29 25 28 32 38 33 35 38 35 37 35 29 26 27 21 28 24 35 32 28 29 30 29 31 31 29 26 26 23 21 21 19 20 19 20
12 13 23 23 21 24 22 19 20 19 20 19 21 21 22 23 18 21 15 23 11 18 22 23 21 18 16 17 19 23 24 25 25 29 27 22 23 24 22 24 27 21 14 17 16 24 24 25 18 13 18 17 18 23 30 33 33 33 34 36 35 36 34 38 31 30 20 23 25 27 37 40 35 32 29 29 28 29 28 25 24 24 22 21 21 21 17 20
13 11 18 18 21 21 22 20 22 20 17 17 20 18 20 21 20 15 11 16 14 16 19 14 21 23 25 20 17 23 26 27 28 27 28 25 22 20 26 26 29 18 17 25 25 29 29 21 17 18 16 15 13 14 21 33 31 32 33 30 33 33 31 35 28 24 20 20 20 29 31 34 37 34 31 29 29 28 28 26 24 23 24 23 22 22 21 21
10 16 15 16 16 10 21 15 19 18 18 18 19 16 14 18 20 17 13 12 18 20 22 17 21 22 20 21 19 23 26 31 27 28 32 32 27 30 27 27 28 25 28 26 28 26 28 22 15 16 17 16 15 14 19 28 27 31 28 28 28 28 27 25 22 19 19 17 26 26 22 25 29 31 27 27 26 28 27 24 24 24 24 23 23 22 22 21
10 13 12 14 15 12 14 14 17 19 20 17 18 17 18 14 12 14 14 14 11 18 20 28 27 22 19 18 20 24 22 21 21 24 27 26 29 28 23 23 27 27 31 29 29 20 29 17 14 20 20 17 13 14 20 23 25 25 21 22 25 23 22 22 21 17 24 25 28 33 32 27 19 28 27 26 29 28 27 25 25 24 23 23 22 22 22 21
11 11 14 16 18 13 15 16 19 21 19 20 21 16 15 12 11 12 14 16 17 17 15 21 23 21 15 17 19 21 20 19 22 23 23 26 27 29 24 23 25 31 31 32 27 21 27 19 18 20 18 15 17 19 22 24 25 26 24 19 20 22 23 18 21 16 13 23 25 30 30 25 16 23 27 26 28 29 28 26 24 22 21 21 22 22 23 21
12 11 17 17 15 9 18 18 16 17 16 17 18 12 13 13 10 12 12 15 17 19 19 18 19 19 16 17 17 19 15 16 19 19 20 21 18 19 17 19 27 31 32 29 24 27 30 25 23 19 21 15 19 20 22 24 26 23 12 15 16 18 20 21 23 20 21 24 22 17 20 27 28 28 31 27 29 28 27 24 24 23 22 22 22 22 22 21
Wind_Speed
9 9 9 8 8 9 9 10 10 9 10 10 10 11 10 11 11 11 12 12 13 13 13 15 14 15 16 17 18 18 19 14 16 13 13 13 1 10 7 7 8 8 8 9 10 11 12 12 13 10 10 8 8 10 7 10 6 7 8 8 9 9 8 4 5 8 8 7 6 4 6 8 12 11 6 9 7 8 11 12 6 8 13 16 16 15 16 15
8 8 8 8 8 8 8 8 8 8 9 10 10 10 10 11 11 11 12 12 13 13 14 15 15 15 16 17 18 17 17 15 15 16 18 5 12 11 8 5 9 9 9 12 11 13 12 13 12 11 10 9 7 9 8 7 8 9 7 9 9 8 4 3 2 9 3 7 2 6 4 5 10 12 10 12 12 10 12 13 12 12 13 15 16 15 14 14
9 8 7 8 8 8 8 9 10 11 9 9 10 10 9 10 11 11 12 12 13 13 14 14 15 15 17 17 17 17 16 16 14 16 4 9 11 11 9 9 13 10 12 11 12 12 12 10 10 11 9 9 8 8 8 7 9 10 9 9 10 5 3 3 5 4 7 0 3 1 5 6 8 7 12 11 12 10 12 11 11 11 15 15 15 15 14 14
8 8 7 8 8 8 9 9 10 10 12 9 10 10 10 10 11 11 11 12 12 12 13 15 15 16 17 18 15 16 13 14 13 4 11 9 7 7 8 8 13 13 15 14 10 12 10 8 10 11 9 11 9 10 9 7 8 8 11 9 7 6 3 4 4 2 2 3 2 1 5 4 8 1 8 8 10 12 10 12 13 10 14 16 16 14 14 13
8 7 7 7 8 9 9 9 10 12 11 12 9 9 10 11 11 11 12 12 12 12 13 15 15 16 17 17 17 12 11 9 3 12 9 5 7 7 7 9 12 15 14 12 11 12 11 11 10 11 11 9 9 9 9 9 10 6 11 13 8 5 9 6 6 6 1 1 3 2 7 3 6 4 10 10 9 9 6 9 10 13 13 13 16 15 12 13
8 8 8 8 8 8 9 10 10 10 10 11 10 9 8 10 11 11 11 12 12 13 13 15 15 16 17 17 16 11 7 5 6 8 8 8 8 9 11 12 14 14 14 14 12 11 13 12 12 11 10 11 10 10 10 11 11 10 8 11 9 5 8 8 4 6 4 3 2 5 3 3 9 10 8 10 4 7 6 8 13 14 11 10 14 14 13 13
8 8 8 8 8 9 10 10 10 11 8 8 10 11 10 9 9 10 11 11 12 13 13 15 15 16 16 19 15 11 10 13 2 11 10 8 9 10 12 12 12 14 14 14 14 12 14 14 14 12 11 11 11 9 10 12 11 11 8 10 12 6 9 4 7 7 6 3 3 2 2 6 6 10 7 9 8 7 6 9 11 13 9 11 14 14 13 11
8 8 8 8 9 9 9 9 9 10 11 10 10 10 9 10 10 8 10 11 11 12 13 15 14 16 15 12 8 9 12 11 10 13 9 9 10 12 13 11 14 14 14 17 14 16 13 16 15 13 12 11 8 11 10 11 12 12 13 7 5 9 10 6 4 7 4 4 5 1 6 4 7 1 13 7 7 9 9 13 12 12 10 10 13 13 13 11
9 9 8 8 9 8 9 10 10 10 11 9 10 12 11 10 10 10 9 10 11 12 12 14 14 15 13 11 8 9 10 12 3 5 7 6 7 10 14 9 14 14 14 15 16 15 14 14 16 14 11 13 11 10 11 8 10 12 12 9 7 7 7 8 7 6 6 6 2 7 5 5 3 3 9 11 10 9 12 14 18 15 17 13 13 13 11 11
9 9 9 9 9 9 10 10 10 10 10 11 8 9 11 10 10 9 9 11 11 12 12 13 14 14 14 9 10 9 2 6 2 2 2 1 4 9 13 9 13 14 14 16 15 17 17 12 15 14 16 13 10 11 10 11 4 7 13 13 10 8 9 8 10 10 9 7 6 8 7 8 7 11 9 10 11 10 11 12 13 15 14 13 12 11 10 10
10 10 10 10 10 10 10 11 11 10 11 12 9 7 9 9 9 9 9 10 11 11 11 12 12 14 11 8 10 10 5 4 2 3 1 1 5 8 11 10 11 12 14 14 16 17 15 15 12 9 11 9 8 10 12 9 13 2 7 10 12 9 8 8 11 11 9 7 10 8 8 7 11 10 6 12 12 13 12 12 13 12 12 10 12 12 11 9
9 10 10 10 10 10 10 11 12 11 11 12 12 8 8 10 9 9 8 10 12 11 11 10 12 9 10 10 10 10 6 1 1 3 4 4 4 4 4 5 7 12 13 14 16 15 15 15 10 12 8 7 13 7 13 11 12 9 5 9 12 12 10 11 12 10 10 11 12 10 8 9 10 13 8 15 13 12 13 12 12 12 10 9 10 10 10 9
10 10 10 10 10 10 10 11 12 11 10 11 10 9 10 9 10 9 8 10 10 10 10 10 11 8 10 10 13 20 10 4 3 2 2 2 1 5 6 7 10 12 13 13 13 15 13 13 11 12 13 4 9 7 3 13 11 10 9 10 10 12 13 14 12 13 14 8 13 11 10 11 14 12 10 12 13 12 13 12 12 11 9 9 8 9 10 9
10 10 11 11 11 10 10 11 11 10 9 9 9 10 10 10 9 10 10 10 11 10 12 11 9 9 9 11 9 3 8 11 10 10 10 8 6 5 4 6 9 10 9 12 9 9 14 9 9 13 10 11 9 8 7 8 12 11 9 9 10 11 11 16 15 16 17 9 12 12 10 12 15 13 13 12 12 14 12 12 13 11 9 8 8 8 9 10
10 10 10 11 11 11 11 11 11 11 10 10 10 9 9 9 11 12 11 11 10 10 9 9 9 8 8 11 16 22 7 5 11 13 11 12 10 8 8 6 8 9 8 9 9 9 6 7 9 11 12 11 15 4 10 9 10 10 10 11 11 10 10 17 18 18 16 12 14 14 12 11 19 17 15 13 13 12 12 12 14 11 9 7 8 8 9 9
10 10 10 10 11 11 10 10 11 11 10 11 10 7 10 11 11 12 12 12 11 9 8 9 9 10 10 12 3 9 9 14 16 16 11 11 11 10 7 8 8 10 10 8 5 4 6 8 11 10 11 10 13 8 9 10 10 11 12 10 12 11 9 15 21 16 19 13 14 16 13 13 17 17 15 13 14 14 13 13 13 14 11 9 7 7 9 10
10 10 10 10 10 11 11 10 10 10 10 10 9 13 14 13 12 12 10 10 8 8 7 5 6 6 7 2 1 9 11 13 10 12 14 13 11 11 9 9 10 10 11 8 6 6 10 11 9 11 12 10 11 11 11 11 10 11 12 10 11 14 12 12 19 17 20 15 14 20 18 9 15 17 14 13 13 13 12 14 15 8 9 14 9 10 10 10
11 10 11 10 10 11 10 10 10 11 11 10 10 15 14 13 10 6 10 9 8 6 7 8 8 6 13 18 10 13 13 10 12 8 12 12 13 11 9 10 10 12 11 10 10 12 11 10 11 11 11 13 13 13 13 12 11 11 12 11 11 14 14 14 16 17 22 16 15 18 20 14 15 14 13 12 12 12 11 12 17 11 10 9 10 10 10 11
10 10 10 10 10 11 10 9 9 8 8 8 15 18 17 15 9 9 6 8 9 6 5 9 9 10 5 8 20 2 6 6 8 9 12 14 14 11 10 10 11 14 12 12 10 14 11 10 12 13 14 14 14 15 14 12 12 13 14 12 11 13 13 12 16 18 21 15 14 18 17 10 11 11 12 12 11 11 12 11 16 13 10 13 10 9 9 10
9 9 10 10 10 10 9 8 8 9 5 9 9 9 8 7 7 8 10 12 14 13 9 9 18 16 5 3 14 6 6 8 9 11 11 13 13 14 14 12 13 13 13 12 13 16 11 14 15 15 14 15 16 17 17 16 11 13 13 14 12 10 13 10 16 18 19 16 14 18 22 13 12 13 12 12 11 11 12 14 13 12 11 7 11 9 9 10
9 9 9 9 10 9 9 8 8 8 4 9 8 7 8 9 11 8 13 13 17 19 20 8 18 18 13 8 2 4 9 10 11 12 13 13 15 15 14 14 14 14 14 14 12 12 12 14 15 16 17 15 17 16 17 18 9 11 12 15 11 12 12 14 11 19 19 15 14 15 21 11 15 12 13 10 11 12 9 14 12 8 9 9 12 10 10 10
9 8 8 9 9 10 9 9 8 5 8 9 9 10 10 6 8 4 6 10 18 22 21 21 13 15 17 13 2 2 5 10 13 13 12 17 16 16 16 15 16 14 14 15 12 12 14 15 15 16 17 15 16 16 16 16 10 12 9 12 12 12 10 12 10 12 17 15 12 16 17 15 12 12 12 12 12 10 11 11 14 15 12 10 12 11 10 8
8 8 7 8 9 9 9 8 7 4 7 8 9 11 11 8 7 8 6 10 13 14 21 20 19 18 16 12 11 5 10 12 14 15 15 16 18 18 16 16 16 14 15 17 14 13 14 14 17 16 16 16 15 16 16 15 10 10 10 11 12 11 14 13 12 14 15 13 12 16 15 10 10 8 11 13 11 9 7 7 9 14 9 11 10 10 8 9
9 8 8 7 8 8 8 8 7 9 10 12 12 12 7 2 5 6 9 8 8 12 17 18 20 19 19 16 9 12 12 9 11 18 15 17 16 17 14 19 18 16 16 19 18 14 13 11 17 16 17 17 16 17 18 12 10 12 13 11 12 12 17 12 11 13 12 16 14 15 14 12 11 12 9 7 6 8 8 8 8 9 15 10 11 10 13 9
9 8 7 7 8 9 7 9 10 11 11 12 12 9 10 7 5 3 7 8 12 13 13 17 13 15 16 13 12 13 13 11 13 10 16 18 18 17 14 13 13 16 16 19 18 15 14 13 16 18 18 18 17 16 18 13 12 13 15 13 11 13 11 10 15 15 11 13 17 18 15 15 14 14 13 11 10 12 12 13 12 11 11 10 9 12 12 11
9 8 7 6 7 6 7 7 11 11 9 8 8 6 6 6 6 4 6 6 9 10 16 16 13 15 12 18 13 12 11 14 14 10 15 16 15 16 11 13 12 16 19 18 16 10 11 13 14 18 18 19 20 15 16 16 12 12 13 17 14 15 11 15 18 14 12 14 16 11 13 9 11 14 17 14 14 12 10 10 10 12 11 12 11 10 11 12
8 7 7 6 5 6 7 2 11 4 6 8 2 5 3 4 0 1 5 6 9 8 17 10 16 8 12 17 16 15 14 14 12 13 15 16 18 16 15 13 13 11 13 11 9 12 13 15 15 18 19 18 16 15 16 18 13 11 11 18 16 13 16 10 13 13 10 11 15 16 13 11 11 14 15 15 15 13 11 9 9 10 13 12 10 11 11 10
9 7 7 6 6 7 9 9 8 7 3 8 6 5 3 2 1 2 5 4 5 14 12 13 8 11 13 19 20 17 12 14 16 18 15 16 18 17 17 17 15 17 15 13 15 9 15 15 16 17 16 14 15 15 14 18 15 10 12 16 13 10 13 18 14 12 10 13 13 17 19 13 8 10 14 17 15 15 14 12 10 12 14 13 12 12 12 11
9 7 6 6 6 9 9 8 7 10 6 4 4 3 2 1 2 5 5 6 7 8 9 12 7 11 9 20 20 19 18 15 14 17 16 16 20 12 15 17 17 16 17 17 12 10 12 18 17 15 14 14 14 16 16 18 16 16 13 15 12 11 8 9 11 12 13 11 13 16 17 14 11 12 14 15 15 15 14 13 13 12 12 11 10 12 11 11
9 8 7 5 5 8 8 9 10 12 9 2 5 4 1 3 6 6 5 6 9 9 11 9 13 15 16 19 17 21 23 12 12 18 19 15 20 18 13 13 15 16 16 19 17 13 12 10 8 13 15 14 15 16 17 17 18 17 9 13 15 13 10 10 12 11 10 12 15 15 18 16 11 14 13 14 15 14 12 11 11 12 12 11 9 10 10 10
9 7 8 7 8 6 7 8 11 12 10 4 5 6 5 4 6 7 9 5 8 7 9 12 14 17 19 21 16 19 21 14 16 20 18 17 19 18 13 15 14 14 15 15 14 19 13 12 13 12 15 12 15 16 17 16 20 19 9 12 13 13 11 9 9 10 10 12 15 15 17 19 13 7 12 14 16 17 14 14 15 14 12 10 9 9 9 11
8 9 9 9 8 7 9 2 4 6 6 4 3 7 6 6 6 7 8 6 10 12 12 13 16 16 19 19 15 20 18 17 16 18 17 15 16 17 17 14 14 16 16 15 15 16 16 16 14 15 14 18 15 14 15 17 18 18 13 14 14 11 9 11 11 12 11 10 12 18 19 16 18 7 14 13 13 16 13 13 14 15 15 12 11 11 10 10
5 5 9 9 10 9 12 4 2 5 4 4 7 7 6 6 9 13 10 10 1 3 10 14 15 18 17 19 17 21 21 16 16 16 18 18 16 18 18 17 19 16 14 16 15 14 13 15 16 15 16 16 16 15 15 15 17 18 16 15 15 13 13 11 12 7 10 12 13 16 17 13 9 9 16 14 13 12 12 12 13 14 14 14 13 12 12 11
6 7 7 9 10 10 8 7 4 6 6 5 7 7 7 6 10 13 9 8 5 3 5 10 17 16 18 15 16 19 18 17 20 16 19 16 17 16 17 21 20 19 15 15 15 16 13 15 16 18 13 17 19 18 15 12 16 16 15 16 14 12 10 10 11 12 12 10 12 16 16 10 10 8 12 15 15 14 11 11 12 15 15 14 13 13 13 11
7 8 8 8 9 10 11 9 7 8 7 7 7 8 9 10 10 12 9 9 7 7 9 8 13 16 17 16 16 20 16 14 19 18 18 17 16 15 17 17 22 19 15 12 14 10 18 11 13 18 10 17 19 17 15 16 15 15 15 13 15 15 10 11 8 10 12 11 10 11 2 5 7 10 9 11 14 15 15 14 14 14 13 13 12 11 10 11
5 7 8 8 10 11 11 9 9 8 8 8 8 9 12 10 5 8 2 8 8 8 6 7 9 14 14 14 16 20 21 13 20 16 16 18 18 17 19 15 19 23 16 13 11 12 14 13 16 19 18 18 17 16 17 17 13 14 15 16 15 13 13 7 6 7 3 9 10 6 7 8 9 5 9 12 14 15 15 14 13 13 13 12 11 10 11 10
7 6 8 10 11 11 12 12 10 10 8 9 10 11 11 10 4 6 4 6 2 5 8 8 12 13 15 14 14 20 20 18 19 16 14 18 16 19 20 18 20 23 21 13 11 11 11 11 16 18 21 17 18 17 17 17 12 11 15 15 12 14 14 9 9 7 6 11 8 13 11 10 11 6 9 13 14 16 16 14 13 13 13 12 11 10 11 11
6 7 7 8 10 12 11 13 12 10 9 9 11 11 6 10 5 3 4 4 8 7 5 9 6 14 14 15 15 18 20 16 18 17 14 18 11 19 19 16 22 20 21 17 9 12 12 10 14 20 18 16 18 18 18 18 19 15 14 10 13 11 17 12 6 12 13 11 8 13 12 8 11 8 13 15 16 16 15 14 13 13 13 13 12 12 11 11
5 5 6 9 5 8 9 10 10 10 9 10 10 11 9 10 10 8 6 6 4 5 5 4 4 9 11 14 13 18 20 15 16 16 14 15 13 19 19 15 20 22 22 20 13 9 12 9 11 16 19 17 15 16 16 18 20 19 13 15 15 12 13 10 9 9 11 10 9 12 17 9 13 11 20 19 18 18 16 14 13 13 13 12 11 10 10 9
6 5 4 4 5 9 9 11 10 10 10 12 11 10 7 9 10 10 5 5 6 7 3 3 9 4 5 9 14 14 18 19 15 15 14 11 12 17 20 18 14 20 21 22 13 10 8 8 7 13 18 16 14 14 17 17 17 16 16 17 15 10 9 12 10 12 11 10 10 7 11 8 5 16 18 19 20 19 17 16 13 13 13 12 11 10 9 9
6 5 4 5 8 10 11 10 10 12 12 11 13 10 10 8 8 8 5 4 6 2 5 4 4 4 2 5 12 17 14 17 16 13 12 13 14 11 17 16 14 18 20 21 16 11 6 9 8 11 14 16 15 16 18 18 17 15 11 12 14 15 14 15 13 12 12 11 9 8 8 6 3 3 15 15 16 17 16 16 15 15 14 13 11 11 10 9
5 5 4 7 10 13 12 10 9 9 9 12 11 10 8 4 9 8 8 8 8 5 6 3 5 5 2 6 7 13 13 16 15 13 12 9 13 5 10 17 17 16 16 13 16 13 9 8 9 10 14 17 17 17 18 17 19 18 14 14 16 14 13 13 12 12 11 12 11 10 6 2 2 3 10 15 15 18 17 16 15 14 14 13 11 10 9 8
6 2 3 8 10 14 12 8 8 8 11 9 9 11 10 8 8 6 7 8 9 8 5 3 4 5 6 6 5 8 14 12 17 14 11 13 13 14 8 17 15 16 18 13 15 12 5 5 12 11 12 12 15 15 18 20 19 18 17 17 16 15 16 13 11 10 11 8 11 8 5 3 2 5 12 13 18 16 13 15 16 13 12 12 11 10 10 9
3 4 4 7 11 12 9 8 10 9 9 11 12 8 7 8 7 9 9 6 6 5 4 4 3 6 6 6 6 7 10 8 15 15 13 13 9 15 15 14 13 13 15 12 12 13 7 9 12 11 8 11 15 15 18 16 15 14 15 16 18 17 19 16 13 8 6 12 12 7 6 4 4 9 15 18 18 17 15 14 15 14 12 11 11 10 9 9
1 1 5 7 9 9 8 8 6 6 10 11 10 9 8 8 9 9 8 7 6 7 2 5 6 3 7 6 8 8 7 11 9 16 14 16 3 6 11 15 14 12 14 12 12 11 9 9 12 11 13 15 16 15 16 17 17 13 16 20 20 22 21 17 12 10 8 10 13 7 4 8 8 11 15 17 18 17 16 15 14 14 13 12 11 10 10 9
2 3 5 8 8 8 10 12 6 8 8 10 7 8 10 10 10 10 9 10 10 3 3 4 4 6 9 9 10 9 9 12 11 11 13 8 6 9 13 14 12 14 11 4 13 10 8 9 12 10 12 13 13 13 12 13 13 15 19 21 22 21 20 18 11 10 10 9 12 11 17 16 13 15 16 17 18 19 18 16 15 13 12 12 11 10 10 9
0 3 7 8 7 9 9 8 8 8 8 9 7 8 12 12 8 9 7 9 3 5 5 6 5 6 5 7 8 11 12 11 12 11 11 9 13 10 14 12 10 12 8 6 10 7 9 10 7 2 3 3 7 9 16 19 18 18 18 20 22 23 20 20 12 11 10 8 9 11 23 21 19 19 18 19 17 18 17 15 14 13 12 11 11 11 11 10
4 2 7 7 6 7 9 8 10 9 8 7 8 8 10 11 10 6 3 3 3 1 3 4 9 11 12 10 7 6 11 13 14 9 10 8 7 6 7 10 13 8 6 10 11 9 10 6 4 7 5 3 3 6 10 19 19 17 19 18 19 21 20 19 17 15 11 7 4 17 20 20 21 19 18 18 18 17 17 16 14 14 13 12 12 12 11 11
2 5 3 4 5 3 10 8 11 10 9 9 6 8 6 9 11 7 2 1 1 3 5 4 8 9 10 8 7 8 11 12 8 12 13 10 8 6 9 13 15 13 13 11 12 10 6 8 6 6 7 6 5 5 6 13 16 19 18 14 14 18 18 15 10 11 12 8 15 11 11 14 16 17 16 15 16 17 15 14 14 14 14 13 13 12 11 11
2 5 3 5 7 4 6 6 7 9 9 8 6 8 7 6 6 5 4 2 2 5 7 12 13 10 10 10 9 10 10 12 9 7 10 10 6 6 6 9 11 14 15 14 11 10 10 1 6 5 7 5 3 3 6 14 15 13 14 14 14 14 12 13 11 11 16 15 16 17 18 13 9 17 16 16 16 16 15 15 15 15 14 14 13 13 12 11
3 3 4 5 7 4 6 7 8 9 7 8 8 8 7 5 3 3 4 7 8 6 6 11 11 12 8 8 9 10 10 8 12 13 9 14 9 12 8 9 10 11 16 14 11 7 11 6 5 9 5 3 5 9 14 7 7 9 9 6 12 11 6 1 6 4 6 11 13 19 16 11 7 14 16 16 17 18 17 16 14 12 13 13 13 12 12 11
4 5 7 5 3 3 7 8 7 6 5 7 8 4 3 6 5 6 3 5 9 11 11 10 11 9 6 7 9 6 4 4 11 6 11 10 6 5 7 5 9 14 12 8 7 8 12 8 7 5 6 3 8 10 9 9 5 8 5 7 5 7 8 10 12 11 8 15 11 7 9 13 16 17 19 17 18 18 17 14 14 14 13 12 13 12 11 12
Wind_Direction
338 337 340 334 338 333 337 335 327 329 325 322 328 319 320 321 317 325 320 321 322 325 323 322 323 320 323 320 320 321 318 306 301 288 258 247 107 111 103 109 159 168 199 212 216 182 191 199 204 199 211 203 208 233 183 210 232 223 223 234 230 241 229 161 221 191 38 84 78 158 157 231 168 174 169 191 184 159 130 122 101 84 87 95 114 122 128 132
334 339 335 336 332 337 334 333 339 331 327 324 319 317 317 316 316 315 317 316 319 320 323 320 319 321 318 319 318 320 316 299 289 282 263 254 165 156 144 156 171 186 210 222 200 191 191 194 201 188 211 215 174 229 158 204 219 216 224 230 239 213 280 101 180 50 224 76 2 93 194 252 166 188 145 192 191 149 164 135 135 106 106 111 112 120 129 140
333 334 333 328 329 337 330 327 327 325 315 328 323 316 319 317 314 315 315 317 316 318 319 318 318 318 317 317 316 318 303 297 284 268 285 49 149 155 158 166 181 190 207 213 203 203 209 189 195 198 208 227 171 212 173 191 201 224 243 221 239 260 60 194 44 91 30 189 94 338 142 248 108 203 144 212 174 179 180 153 143 136 125 121 124 130 139 141
325 327 325 330 330 324 329 325 327 322 320 312 323 317 313 315 311 309 317 318 315 317 318 316 318 317 315 314 322 312 295 290 272 206 78 85 122 157 171 161 190 196 217 242 219 224 218 213 199 208 208 239 172 228 177 184 213 192 236 243 219 248 152 206 208 86 65 328 67 2 172 170 162 238 185 196 184 191 195 163 162 148 130 133 132 140 141 145
321 320 323 322 324 320 324 329 315 319 320 313 307 319 321 315 314 316 312 314 319 314 315 316 316 315 314 313 312 299 297 285 107 85 90 121 145 172 157 178 194 204 219 233 233 230 228 223 200 213 235 218 216 203 225 196 218 234 224 241 276 59 269 114 179 96 50 117 280 160 211 97 139 201 213 212 201 191 193 139 141 123 132 134 139 139 146 151
318 316 317 314 315 323 322 322 327 324 323 312 300 298 309 317 311 311 316 312 310 316 316 315 315 313 314 315 303 283 266 230 71 106 106 111 160 168 183 179 199 221 217 232 230 218 222 219 211 212 215 239 209 213 197 233 184 242 217 254 265 291 242 138 163 135 217 191 220 230 52 190 213 185 189 221 106 43 82 105 100 124 126 139 133 143 150 153
308 314 311 311 309 315 320 322 322 310 301 307 319 308 303 302 313 315 310 312 310 309 314 313 314 313 317 305 278 261 249 273 301 133 122 168 152 172 181 188 193 216 223 226 221 220 211 218 212 210 222 224 235 215 216 211 203 239 251 193 225 233 244 94 203 146 204 185 240 311 163 220 181 201 171 204 93 164 122 108 92 101 106 146 143 149 146 146
305 305 308 306 308 315 319 317 315 318 306 311 307 309 312 307 303 302 318 312 316 311 309 312 313 309 321 311 285 223 235 251 242 134 135 160 185 174 176 190 192 203 216 221 213 217 207 219 207 214 227 225 210 216 223 216 207 222 242 259 230 211 225 212 218 205 201 229 232 184 211 175 203 321 170 161 127 123 111 107 119 115 132 186 144 139 141 144
302 300 303 303 306 308 310 311 303 310 307 298 315 313 302 299 301 305 309 314 311 312 308 308 309 310 305 282 285 279 251 235 51 65 151 196 185 164 176 184 195 199 211 216 220 218 214 215 218 219 217 224 242 231 217 219 208 223 242 234 233 216 216 216 216 219 206 210 185 197 194 181 133 172 190 141 133 131 132 133 136 157 160 159 135 133 142 146
300 299 296 301 300 304 304 305 310 301 301 294 294 309 306 301 299 298 316 310 303 302 306 308 304 309 295 272 255 251 127 52 68 68 41 216 162 180 198 205 183 205 210 213 216 218 214 215 223 210 251 257 249 229 226 197 274 186 215 235 237 215 211 197 217 197 194 215 171 218 183 172 153 201 154 139 132 135 147 140 146 151 141 131 131 132 134 147
298 296 295 295 301 301 304 303 304 300 294 295 284 301 304 304 300 298 301 310 301 298 299 302 304 301 283 261 249 233 69 248 82 92 102 190 199 200 207 217 190 212 216 212 219 217 217 233 210 239 232 251 254 250 235 199 237 155 267 220 230 234 212 194 213 199 194 200 200 212 184 151 168 214 189 147 151 160 154 153 152 138 123 127 129 134 138 140
296 293 293 293 296 300 308 307 302 300 299 298 289 282 302 297 300 296 304 303 299 295 294 298 296 281 275 267 241 238 81 59 167 106 146 206 185 212 253 241 224 220 217 216 215 215 224 226 231 228 233 187 245 262 232 230 231 250 221 239 216 219 220 208 204 206 202 193 194 199 180 181 181 203 181 149 155 169 164 161 153 124 117 127 131 126 135 134
295 292 291 292 292 301 302 305 301 302 302 301 308 302 295 303 296 296 296 289 281 292 294 295 292 267 274 256 239 245 253 251 220 225 268 251 207 184 223 225 235 228 227 230 213 216 221 231 235 245 235 257 233 221 357 201 226 238 214 246 209 209 217 201 212 204 200 177 181 190 202 193 182 192 130 142 163 173 171 168 139 120 138 138 135 136 124 133
291 290 293 294 293 294 304 300 303 295 296 297 299 308 297 297 299 294 288 281 288 292 289 284 275 271 258 254 259 170 245 257 264 237 231 235 241 226 200 222 220 221 227 245 248 215 221 224 237 246 243 230 224 134 246 198 210 218 219 224 242 204 209 191 199 197 199 163 181 191 222 182 177 193 151 164 167 182 174 172 143 149 134 136 134 127 131 138
293 292 290 292 297 296 298 305 300 298 294 292 295 301 305 284 284 284 279 281 270 271 278 277 257 257 234 256 247 253 201 245 255 240 228 228 229 233 224 174 209 211 212 223 230 220 204 211 227 232 228 220 258 279 219 221 195 217 215 211 227 239 192 184 191 191 202 156 189 198 240 197 179 177 157 172 173 185 178 172 150 147 146 128 130 137 134 136
293 294 291 293 293 293 294 301 300 297 287 285 292 295 282 277 270 276 273 277 297 304 264 250 234 234 288 278 276 85 194 221 229 234 223 225 219 236 175 186 190 199 193 199 239 173 212 208 221 218 228 202 233 226 215 213 205 209 226 208 213 220 202 178 183 183 204 160 194 207 219 209 174 163 161 178 177 182 182 181 140 152 146 143 162 148 136 139
291 290 295 292 292 291 293 295 293 291 299 301 305 279 265 270 273 266 264 259 242 224 241 248 201 200 243 61 346 219 214 209 229 208 207 208 214 221 164 181 188 177 192 174 207 185 191 215 205 230 232 226 205 222 215 204 204 205 207 230 211 208 210 183 167 190 201 183 187 207 232 247 142 147 167 181 191 185 190 177 130 138 172 152 168 154 143 141
287 294 297 300 297 294 293 287 286 289 295 306 288 281 281 278 288 288 213 219 220 215 227 249 288 235 249 260 255 229 211 210 192 199 196 188 207 207 190 183 180 180 175 177 190 197 183 206 199 220 203 220 201 215 223 205 207 198 194 221 203 211 220 168 174 175 205 189 195 202 228 247 133 151 168 180 190 185 194 172 126 139 194 175 152 153 148 132
286 292 294 296 294 292 291 287 286 298 306 299 275 266 264 266 259 224 182 190 180 183 205 191 196 191 11 197 209 7 181 140 160 197 182 184 188 205 190 190 183 175 184 193 174 204 173 213 199 220 211 205 207 212 215 222 203 207 200 209 220 192 203 204 172 183 199 179 195 200 216 178 148 158 182 181 192 191 180 158 129 170 146 154 159 128 126 123
282 291 293 291 291 286 283 282 284 284 308 278 271 238 219 221 190 199 192 197 213 200 245 164 195 224 262 228 185 147 82 140 195 201 182 183 179 192 191 186 183 193 195 202 165 207 168 208 202 209 213 203 211 213 217 229 214 215 204 210 224 197 206 212 173 179 185 187 199 192 218 161 164 174 165 181 180 196 185 166 138 169 165 177 131 116 121 115
276 284 289 290 285 289 279 282 283 283 203 279 273 266 226 207 206 207 180 212 215 230 245 218 197 228 248 69 120 214 205 187 218 188 195 169 189 182 184 185 185 198 202 202 183 189 194 212 212 208 215 208 210 213 220 231 253 243 204 210 210 209 197 208 169 163 181 201 192 194 213 179 170 168 172 164 178 193 197 149 147 163 183 169 135 144 122 120
273 278 285 286 288 285 287 284 291 292 214 274 259 245 267 329 0 333 289 227 215 226 239 249 248 240 250 266 294 318 280 208 197 193 173 179 180 197 167 195 187 200 188 204 181 189 203 215 212 209 212 214 213 213 220 233 224 244 222 204 213 201 207 179 131 177 183 204 189 196 202 207 146 174 167 174 187 180 184 174 174 168 186 165 138 136 132 130
262 270 277 283 285 287 286 290 287 217 268 248 240 241 255 298 4 321 308 284 287 229 222 228 231 239 247 238 236 236 229 216 185 186 168 192 177 209 167 196 190 202 190 203 195 191 205 212 214 208 210 213 208 209 216 223 227 224 217 206 216 189 203 172 160 173 194 201 190 187 196 187 147 150 163 178 171 143 158 146 170 158 176 171 157 153 129 135
253 262 273 280 282 285 284 285 278 243 242 250 246 247 261 270 304 287 258 261 276 231 209 214 220 225 227 222 202 214 221 212 219 180 165 196 189 198 195 197 194 204 200 201 207 203 210 201 205 209 207 210 207 203 212 210 207 225 229 217 214 196 209 197 143 186 184 208 237 180 200 172 176 168 172 170 118 152 150 154 148 163 180 154 164 153 156 150
244 257 269 274 280 285 285 273 247 238 240 232 244 242 244 273 298 265 295 267 237 255 216 211 209 220 222 223 205 206 210 243 232 195 168 199 189 191 206 190 210 204 209 196 210 216 212 214 190 209 202 206 211 203 207 198 209 209 228 240 222 214 196 156 158 181 184 204 218 238 190 206 174 189 178 165 171 186 172 180 174 174 164 144 149 141 130 124
237 251 267 273 275 277 285 265 232 221 222 236 237 189 208 208 206 349 276 249 262 214 178 211 167 213 200 197 193 198 201 228 215 214 167 199 202 202 182 203 211 200 210 197 208 219 216 199 196 202 203 203 210 211 195 203 215 214 202 230 234 221 189 202 169 188 189 200 194 212 201 204 186 194 188 169 181 170 171 170 168 176 173 157 153 135 139 134
226 242 257 266 261 261 244 190 8 35 233 208 189 135 197 126 232 298 238 218 251 171 175 159 173 142 180 177 172 176 200 205 193 220 181 189 206 199 212 197 188 239 203 211 198 210 225 204 196 203 203 204 204 207 194 201 218 221 184 208 231 242 203 182 181 192 202 207 182 200 218 223 193 201 175 169 176 165 165 154 163 173 176 163 133 132 128 129
218 233 251 245 243 235 260 328 285 237 341 50 124 130 178 193 330 239 251 209 219 142 178 146 211 132 208 156 181 196 215 148 184 197 203 173 215 189 230 199 198 204 203 198 211 190 202 213 194 196 199 198 207 205 189 200 216 218 177 196 214 247 209 187 190 195 211 188 200 195 208 240 209 185 173 180 181 171 165 154 146 128 96 90 98 97 97 94
216 231 244 244 237 254 277 264 262 252 129 178 148 204 189 147 267 232 239 234 134 149 112 151 108 168 196 166 188 201 217 176 193 165 187 180 209 209 208 220 198 204 217 205 220 192 183 227 182 198 197 207 208 203 207 194 213 229 193 185 203 221 237 199 196 196 216 202 214 188 197 227 207 183 181 181 186 172 162 155 144 137 126 106 110 106 102 103
207 228 237 236 254 228 233 235 240 258 283 173 179 198 266 239 214 211 191 251 161 171 178 125 184 172 180 173 186 195 215 172 207 153 180 190 189 221 220 229 216 202 213 209 218 223 194 206 182 201 208 212 204 204 206 193 217 230 201 181 200 207 212 210 214 205 218 220 210 199 196 219 223 171 179 191 192 166 153 147 142 129 125 122 111 116 116 106
212 225 225 223 238 229 218 236 228 220 239 224 211 200 220 214 216 207 187 206 181 122 130 154 177 171 176 181 179 190 214 184 194 158 175 184 185 204 204 207 227 205 213 208 210 229 191 178 201 209 221 216 210 200 202 197 209 224 186 203 190 199 207 209 229 230 222 221 209 206 212 204 234 172 205 197 178 162 157 148 146 138 133 129 123 116 107 102
213 217 218 225 246 263 232 31 1 163 173 177 188 219 200 199 226 230 183 127 225 148 195 166 170 174 177 185 187 181 196 198 183 170 179 182 180 191 197 204 188 196 203 198 202 218 209 199 194 209 209 219 199 212 192 197 206 215 189 208 195 184 189 200 197 208 224 229 189 215 207 198 228 229 178 119 141 141 144 145 146 135 131 124 115 110 106 107
192 203 210 230 239 232 239 271 271 81 44 166 220 207 203 210 207 218 232 164 108 183 156 176 159 177 180 183 191 180 196 202 166 181 180 181 188 192 197 211 191 209 196 192 207 194 219 210 192 203 198 210 209 206 182 193 199 212 193 199 200 193 188 202 197 203 217 224 217 211 210 215 99 67 123 134 112 111 119 129 138 131 132 122 118 108 100 94
182 188 216 221 225 230 231 234 231 184 203 213 221 197 226 229 210 220 209 193 135 175 176 195 163 179 184 190 183 181 185 203 167 183 186 178 192 184 194 212 198 203 221 184 210 189 199 192 203 198 198 188 215 215 201 188 196 201 205 204 210 210 186 194 199 197 206 203 209 210 207 164 155 112 93 106 104 93 95 112 117 113 112 112 107 102 97 96
163 217 233 230 229 233 229 224 223 212 218 219 211 208 204 221 224 181 207 145 167 155 208 187 174 180 179 201 183 180 197 186 179 182 188 186 190 189 191 198 201 203 203 199 200 200 209 211 192 202 198 183 220 204 196 196 199 196 208 222 215 219 185 206 199 212 192 204 189 219 190 32 126 115 121 117 117 114 108 115 118 116 117 113 104 102 100 93
198 226 220 229 223 221 213 208 212 197 214 214 215 209 223 214 181 201 78 336 140 159 178 172 197 191 175 194 182 179 194 217 176 196 189 197 189 195 190 194 202 199 200 205 176 202 194 211 188 181 206 183 210 194 206 192 203 185 209 214 217 219 212 204 210 312 243 214 206 164 91 112 116 128 146 135 132 127 131 129 129 125 120 111 103 102 101 104
227 225 220 221 223 208 194 196 192 195 208 229 214 217 226 227 236 275 96 237 56 132 188 198 186 201 175 188 184 186 179 215 179 197 188 195 194 202 189 196 203 195 213 199 190 210 193 205 182 171 199 189 197 202 219 198 219 183 212 209 218 227 234 199 214 189 221 216 197 197 155 152 167 167 157 161 146 140 133 136 129 124 117 106 108 109 109 102
219 224 246 240 209 187 186 185 187 192 209 222 226 244 243 236 168 229 38 223 193 201 252 204 173 227 179 189 184 183 177 210 174 195 200 187 200 189 195 195 192 202 204 206 209 194 210 204 180 178 190 185 187 197 216 212 210 219 202 200 219 190 214 204 228 203 202 209 199 198 156 166 190 149 168 170 158 147 140 138 138 127 117 114 112 112 109 108
219 229 228 206 204 146 177 169 184 193 212 221 229 227 234 256 298 252 130 303 345 331 221 99 316 205 215 190 185 185 177 201 175 195 197 183 206 182 200 193 183 200 198 206 199 204 214 217 181 180 195 175 188 192 205 200 197 232 210 202 225 233 216 204 216 217 212 204 202 197 194 195 207 175 178 169 160 151 145 147 140 128 123 120 120 117 110 105
211 204 196 102 172 149 160 172 187 203 216 221 215 227 219 221 232 250 155 229 236 229 146 156 215 261 222 281 192 190 181 197 185 197 204 165 214 167 209 178 188 191 196 208 202 177 212 234 196 174 191 177 199 192 205 199 189 202 216 201 194 235 207 230 203 219 206 214 199 199 204 183 192 159 169 165 159 148 151 146 135 130 122 121 118 114 107 104
214 255 131 173 165 156 159 183 199 204 215 232 238 236 234 225 230 222 222 117 274 320 310 241 219 205 109 256 222 195 183 202 194 192 196 176 206 170 209 187 184 192 201 198 203 179 210 201 206 180 194 201 201 189 206 198 199 200 211 218 205 203 202 207 210 209 217 214 204 195 207 98 18 177 161 155 150 146 149 141 128 125 120 115 113 106 108 106
208 208 143 169 168 169 178 185 212 210 227 222 210 216 224 284 287 268 210 193 240 240 152 262 240 279 233 240 270 205 192 198 198 189 190 193 181 211 188 203 186 190 193 201 197 178 228 193 201 194 205 201 201 185 205 208 207 204 198 214 212 202 215 207 212 197 224 215 228 208 197 109 20 256 135 149 148 144 142 133 122 120 115 113 109 110 110 103
221 12 102 180 173 185 198 216 199 209 225 226 243 229 218 214 228 236 243 224 211 220 238 217 226 241 237 261 247 253 228 204 197 193 178 191 194 193 199 214 195 191 193 196 197 186 167 226 199 205 213 207 197 194 198 216 202 203 208 223 210 207 211 222 218 207 213 206 224 199 177 130 137 86 126 126 126 125 127 127 124 119 116 116 119 119 116 110
116 147 159 179 191 197 217 209 191 212 215 227 228 231 229 248 227 225 230 213 243 164 241 262 256 233 273 266 269 245 235 228 203 185 185 198 195 169 209 204 190 200 200 175 203 161 192 207 223 191 198 203 203 197 195 204 223 207 201 210 223 213 206 225 231 217 222 226 230 224 162 168 157 144 121 125 125 128 131 129 125 121 128 127 125 122 117 115
263 119 121 152 180 209 225 231 265 218 213 220 218 224 243 227 231 247 243 220 219 240 216 236 246 275 249 265 275 276 244 236 209 195 190 190 116 191 155 202 188 213 196 177 206 155 213 189 214 205 194 196 188 193 195 189 200 212 211 198 217 217 202 206 218 206 220 240 213 208 119 119 138 140 144 136 133 134 134 125 124 125 130 128 124 122 118 113
240 147 149 151 192 211 245 265 274 275 225 216 220 234 235 237 205 207 235 257 249 237 285 288 252 266 273 274 268 258 245 220 226 191 201 158 128 204 192 208 202 211 193 132 204 187 207 210 216 222 218 214 200 195 207 195 191 212 207 203 201 219 216 211 212 215 201 222 224 194 141 143 147 166 153 145 141 142 135 132 129 131 130 126 124 120 116 109
294 223 159 167 179 218 237 225 236 248 246 197 218 204 227 218 222 183 176 239 102 304 279 260 248 255 257 253 258 258 248 221 201 206 198 170 171 179 172 197 202 207 51 161 205 192 208 208 184 48 294 343 334 270 197 202 198 205 212 204 200 204 206 206 210 213 189 222 225 128 143 145 160 165 149 145 143 138 135 132 129 131 132 128 123 120 115 111
238 160 209 167 197 186 208 218 224 218 239 237 216 209 215 212 213 198 110 278 355 220 264 213 237 238 252 263 276 264 230 218 193 191 175 170 161 164 149 185 208 156 176 196 188 210 207 209 91 205 237 289 219 284 232 200 201 199 210 214 209 204 200 205 210 212 212 218 211 149 153 150 159 153 139 141 140 137 135 134 135 135 131 128 130 125 118 115
224 264 302 167 228 192 196 212 211 220 215 224 221 223 231 231 209 197 199 114 355 273 239 261 260 251 245 246 241 246 231 215 189 187 201 175 192 176 180 187 208 183 198 199 193 205 218 207 159 221 207 212 257 237 257 219 200 203 206 217 212 202 207 209 204 208 220 200 127 157 134 125 139 127 136 136 134 130 126 128 132 136 137 135 130 125 120 118
343 1 336 259 246 257 221 198 211 208 214 201 243 215 225 226 228 142 158 190 246 271 241 251 257 254 255 258 248 244 241 239 218 192 176 144 153 208 215 207 171 179 191 199 189 170 227 132 139 184 189 178 209 238 235 231 209 203 205 207 208 216 216 203 173 83 73 99 131 125 122 115 119 131 130 132 128 124 126 135 139 137 138 136 130 127 125 119
320 239 270 289 218 201 194 205 202 201 213 184 216 216 207 194 214 160 210 199 238 243 252 258 259 258 257 261 230 237 243 293 290 210 155 157 164 203 203 192 194 169 191 190 197 142 206 178 163 195 182 162 220 204 204 170 175 131 130 172 193 184 127 123 93 39 141 130 135 124 126 126 118 122 119 129 131 132 136 138 137 139 137 137 134 130 127 119
304 259 253 265 265 211 224 192 207 206 216 193 204 186 178 185 191 176 222 240 238 247 263 268 265 257 210 229 227 214 260 284 264 185 187 202 173 194 214 218 197 191 184 196 166 189 195 185 175 199 179 178 210 202 158 157 163 139 102 45 20 148 147 87 77 51 92 134 154 156 140 138 132 132 129 136 134 133 133 137 137 138 139 137 131 127 124 121